GAOFEN-6

Last updated on Mon Sep 07 2026 00:02:46 GMT+0000 (Coordinated Universal Time)

1 43484U 18048A 26249.60139589 .00000418 00000+0 67600-4 0 9993 2 43484 98.0896 312.4103 0009257 269.7163 90.2985 14.76433040445408
UTC large
Height (km)
Speed (km/s)
/
Latitude / Longitude
Inclination (degrees)
Orbital Period (minutes)
Azimuth
Elevation
Range (km)
Doppler Factor

Next 0 passes for location: London (51.5072 / 0.1276)

No passes found over London.
GAOFEN-6